Location: River House Observatory
(37.8577°N, 76.3548°W)
Time: 17:48:12
(UTC-04:00)

NOSS 3-1 (C) - Visible Passes

Search period start: 28 July 2015 00:00
Search period end: 07 August 2015 00:00
Orbit: 878 x 1331 km, 63.4° (Epoch: 19 June)

Date Brightness Start Highest point End Pass type
(mag) Time Alt. Az. Time Alt. Az. Time Alt. Az.
28 Jul 5.5 04:01:24 10° SSE 04:05:04 18° ESE 04:09:09 10° ENE visible
29 Jul 3.6 05:04:05 10° SSW 05:09:59 75° ESE 05:16:28 10° NE visible
30 Jul 4.3 04:20:35 16° S 04:24:55 43° ESE 04:30:56 10° NE visible
31 Jul 5.0 03:37:06 17° SSE 03:39:58 24° ESE 03:44:59 10° ENE visible
31 Jul 3.9 05:24:33 10° SW 05:30:23 51° NW 05:36:46 10° NNE visible
01 Aug 5.6 02:53:35 12° ESE 02:55:05 13° ESE 02:57:58 10° ENE visible
01 Aug 3.4 04:41:00 22° SW 04:45:02 84° WNW 04:51:36 10° NNE visible
02 Aug 3.7 03:57:25 34° S 03:59:53 59° ESE 04:06:13 10° NE visible
03 Aug 4.4 03:13:48 31° SE 03:14:53 33° ESE 03:20:31 10° NE visible
03 Aug 4.2 05:01:13 16° WSW 05:05:37 40° NW 05:11:46 10° NNE visible
04 Aug 5.2 02:30:09 19° ESE 02:30:09 19° ESE 02:34:15 10° ENE visible
04 Aug 3.6 04:17:33 35° WSW 04:20:10 64° NW 04:26:40 10° NNE visible
05 Aug 3.3 03:33:51 62° S 03:34:54 78° ESE 03:41:24 10° NE visible
05 Aug 5.1 05:21:58 10° W 05:26:40 21° NW 05:31:34 10° N visible
06 Aug 4.0 02:50:07 45° ESE 02:50:07 45° ESE 02:55:54 10° NE visible
06 Aug 4.6 04:37:31 19° W 04:40:54 32° NW 04:46:42 10° NNE visible
